sat.trackr.live / text

‹ back to catalog

IOD-1

NORAD 63212 · 2025-052C

PAYLOAD ACTIVE UNKNOWN

§ Identity

Operator
Country
SPN
Launch date
2025-03-15
Launch site
AFWTR
Launch vehicle
Mass (kg)
RCS (m²)

External: N2YO · Heavens-Above · Gunter

§ Orbital elements

Epoch: 2026-05-25T03:37:20.294112Z

Period
92.87 min
Inclination
97.3856°
Eccentricity
0.0003802
Mean motion
15.50552412 rev/d
Perigee alt
412.5 km
Apogee alt
417.7 km
Semi-major
6,793.2 km
B*
8.7569e-4
RAAN
46.2150°
Arg perigee
124.5200°
Mean anomaly
235.6411°
Rev number
6,691

§ Raw data

IOD-11 63212U 25052C   26145.15092933  .00050200  00000+0  87569-3 0  99922 63212  97.3856  46.2150 0003802 124.5200 235.6411 15.50552412 66913

JSON: /api/v1/satellites/63212 · /tle

For live sub-satellite position, see the globe view (requires WebGL).

§ Visibility from observer

Set your observer location to see the next 7 days of passes ≥ 10°. The values pass through the URL so the page stays shareable.

No JS? Fill the form by hand. The geolocation button needs JavaScript.

§ Radio — SatNOGS DB

ModeDescriptionDownlinkUplink
FM Mode S - Transmitter 2.245 GHz

1 transmitter · refreshed weekly from db.satnogs.org